User: anonymous   Login
Location: Bijele Vode
(45.2833°N, 16.2000°E)
Time: 05:57:02
(UTC+00:00)
Language:

Cosmos 2026 Rocket - Orbit

View from above orbital plane
View from above orbital plane
View from above satellite
View from above satellite

Ground track
Ground track

The orbit data is extracted from the following two-line orbital elements,

1 20046U 89042B   20339.03972057  .00000036  00000-0  20068-4 0  9994
2 20046  82.9384  79.7596 0043258 118.2877 242.2656 13.78204252583408
Epoch (UTC): 04 December 2020 00:57:11
Eccentricity: 0.0043258
inclination: 82.9384°
perigee height: 938 km
apogee height: 1002 km
right ascension of ascending node: 79.7596°
argument of perigee: 118.2877°
revolutions per day: 13.78204252
mean anomaly at epoch: 242.2656°
orbit number at epoch: 58340

The dashed part of the orbit path shows where the satellite is in the earth's shadow,  

DLR